HS3MXC-2 Weather Reports


time (UTC)temp
C
wind
direction
speed
KPH
gust
KPH
rain 1hr
cm
rain 24hr
cm
rain mn
cm
humidity
%
barometer
mb
20260504172713 28 0.0 0.0 0.00 0.00 0.00 69 997.2
20260504172205 28 0.0 0.0 0.00 0.00 0.00 69 997.2
20260504171151 28 0.0 0.0 0.00 0.00 0.00 69 997.3
20260504170644 28 0.0 0.0 0.00 0.00 0.00 69 997.3
20260504141141 29 0.0 0.0 0.00 0.00 0.00 67 996.7
20260504140629 29 0.0 0.0 0.00 0.00 0.00 67 996.7
20260504140119 29 0.0 0.0 0.00 0.00 0.00 67 996.6
20260504130429 30 0.0 0.0 0.00 0.00 0.00 66 996.7
20260504120240 30 0.0 0.0 0.00 0.00 0.00 64 996.4
20260504110108 31 0.0 0.0 0.00 0.00 0.00 62 996.3
20260504100449 33 0.0 0.0 0.00 0.00 0.00 59 993.7
20260504081655 34 0.0 0.0 0.00 0.00 0.00 57 993.6
20260504081146 34 0.0 0.0 0.00 0.00 0.00 57 993.7
20260504050159 32 0.0 0.0 0.00 0.00 0.00 60 997.7
20260504045652 32 0.0 0.0 0.00 0.00 0.00 60 997.9
20260504044637 32 0.0 0.0 0.00 0.00 0.00 60 998.0
20260504044130 32 0.0 0.0 0.00 0.00 0.00 60 998.1
20260504043624 32 0.0 0.0 0.00 0.00 0.00 60 998.1
20260504043117 32 0.0 0.0 0.00 0.00 0.00 61 998.1
20260504042610 32 0.0 0.0 0.00 0.00 0.00 61 998.2
20260504042103 32 0.0 0.0 0.00 0.00 0.00 61 998.2
20260504041556 32 0.0 0.0 0.00 0.00 0.00 62 998.2
20260504041048 31 0.0 0.0 0.00 0.00 0.00 62 998.2
20260504040541 31 0.0 0.0 0.00 0.00 0.00 62 998.3
20260504040035 31 0.0 0.0 0.00 0.00 0.00 62 998.3
20260504035528 31 0.0 0.0 0.00 0.00 0.00 62 998.4
20260504035022 31 0.0 0.0 0.00 0.00 0.00 62 998.5
20260504034516 31 0.0 0.0 0.00 0.00 0.00 62 998.6
20260504034006 31 0.0 0.0 0.00 0.00 0.00 63 998.7
20260504032950 31 0.0 0.0 0.00 0.00 0.00 64 998.8
20260504032443 31 0.0 0.0 0.00 0.00 0.00 64 998.9
20260504031936 31 0.0 0.0 0.00 0.00 0.00 64 999.0
20260504031430 31 0.0 0.0 0.00 0.00 0.00 64 999.2
20260504030414 30 0.0 0.0 0.00 0.00 0.00 65 999.4
20260504025907 30 0.0 0.0 0.00 0.00 0.00 66 999.5
20260504025400 30 0.0 0.0 0.00 0.00 0.00 66 999.5
20260504024852 30 0.0 0.0 0.00 0.00 0.00 66 999.5
20260504024345 30 0.0 0.0 0.00 0.00 0.00 66 999.5
20260504023839 30 0.0 0.0 0.00 0.00 0.00 66 999.6
20260504023326 30 0.0 0.0 0.00 0.00 0.00 66 999.6
20260504022819 30 0.0 0.0 0.00 0.00 0.00 67 999.7
20260504022312 30 0.0 0.0 0.00 0.00 0.00 67 999.7
20260504021805 29 0.0 0.0 0.00 0.00 0.00 68 999.7
20260504021300 29 0.0 0.0 0.00 0.00 0.00 68 999.6
20260504020752 29 0.0 0.0 0.00 0.00 0.00 68 999.6
20260504020246 29 0.0 0.0 0.00 0.00 0.00 68 999.6
20260504015739 29 0.0 0.0 0.00 0.00 0.00 69 999.5
20260504015231 29 0.0 0.0 0.00 0.00 0.00 69 999.5
20260504014724 29 0.0 0.0 0.00 0.00 0.00 69 999.4
20260504014218 29 0.0 0.0 0.00 0.00 0.00 69 999.3
20260504013202 29 0.0 0.0 0.00 0.00 0.00 70 999.2
20260504012655 28 0.0 0.0 0.00 0.00 0.00 70 999.1
20260504011641 28 0.0 0.0 0.00 0.00 0.00 70 999.0
20260504011135 28 0.0 0.0 0.00 0.00 0.00 70 998.9
20260504010628 28 0.0 0.0 0.00 0.00 0.00 70 998.7
20260504010112 28 0.0 0.0 0.00 0.00 0.00 70 998.7
20260504005518 28 0.0 0.0 0.00 0.00 0.00 70 998.6
20260504005009 28 0.0 0.0 0.00 0.00 0.00 71 998.5
20260504004501 28 0.0 0.0 0.00 0.00 0.00 71 998.4
20260504003954 28 0.0 0.0 0.00 0.00 0.00 71 998.4
20260504002938 28 0.0 0.0 0.00 0.00 0.00 71 998.3
20260504000908 28 0.0 0.0 0.00 0.00 0.00 71 998.0
20260504000401 28 0.0 0.0 0.00 0.00 0.00 71 998.0
20260503235854 28 0.0 0.0 0.00 0.00 0.00 72 997.8
20260503235343 28 0.0 0.0 0.00 0.00 0.00 72 997.7
20260503234833 28 0.0 0.0 0.00 0.00 0.00 72 997.7
20260503234326 28 0.0 0.0 0.00 0.00 0.00 72 997.7
20260503233819 28 0.0 0.0 0.00 0.00 0.00 72 997.6
20260503233311 28 0.0 0.0 0.00 0.00 0.00 72 997.5
20260503232804 28 0.0 0.0 0.00 0.00 0.00 72 997.5
20260503232257 28 0.0 0.0 0.00 0.00 0.00 72 997.5
20260503231743 28 0.0 0.0 0.00 0.00 0.00 72 997.3
20260503231236 28 0.0 0.0 0.00 0.00 0.00 72 997.1
20260503230730 28 0.0 0.0 0.00 0.00 0.00 72 997.1
20260503230222 28 0.0 0.0 0.00 0.00 0.00 72 996.9
20260503225208 28 0.0 0.0 0.00 0.00 0.00 72 996.9
20260503224701 28 0.0 0.0 0.00 0.00 0.00 72 996.8
20260503223646 28 0.0 0.0 0.00 0.00 0.00 72 996.8
20260503223139 28 0.0 0.0 0.00 0.00 0.00 72 996.7
20260503222632 28 0.0 0.0 0.00 0.00 0.00 72 996.6
20260503222126 28 0.0 0.0 0.00 0.00 0.00 72 996.5
20260503221619 28 0.0 0.0 0.00 0.00 0.00 72 996.5
20260503221112 28 0.0 0.0 0.00 0.00 0.00 72 996.5
20260503220605 28 0.0 0.0 0.00 0.00 0.00 72 996.5
20260503220057 28 0.0 0.0 0.00 0.00 0.00 72 996.5
20260503215551 28 0.0 0.0 0.00 0.00 0.00 72 996.5
20260503215042 28 0.0 0.0 0.00 0.00 0.00 72 996.5
20260503214534 28 0.0 0.0 0.00 0.00 0.00 72 996.5
20260503214027 28 0.0 0.0 0.00 0.00 0.00 72 996.5
20260503213521 28 0.0 0.0 0.00 0.00 0.00 72 996.4
20260503213009 28 0.0 0.0 0.00 0.00 0.00 72 996.2
20260503212502 28 0.0 0.0 0.00 0.00 0.00 71 996.2
20260503211954 28 0.0 0.0 0.00 0.00 0.00 71 996.2
20260503211447 28 0.0 0.0 0.00 0.00 0.00 71 996.2
20260503210940 28 0.0 0.0 0.00 0.00 0.00 71 996.2
20260503210434 28 0.0 0.0 0.00 0.00 0.00 71 996.1
20260503205420 28 0.0 0.0 0.00 0.00 0.00 71 996.2
20260503204911 28 0.0 0.0 0.00 0.00 0.00 71 996.2
20260503204404 28 0.0 0.0 0.00 0.00 0.00 71 996.1
20260503203857 28 0.0 0.0 0.00 0.00 0.00 71 996.1
20260503203350 28 0.0 0.0 0.00 0.00 0.00 71 996.1
20260503202841 28 0.0 0.0 0.00 0.00 0.00 71 996.2
20260503202332 28 0.0 0.0 0.00 0.00 0.00 71 996.2
20260503201825 28 0.0 0.0 0.00 0.00 0.00 71 996.2
20260503201318 28 0.0 0.0 0.00 0.00 0.00 71 996.1
20260503200811 28 0.0 0.0 0.00 0.00 0.00 71 996.1
20260503200303 28 0.0 0.0 0.00 0.00 0.00 71 996.2
20260503195757 28 0.0 0.0 0.00 0.00 0.00 71 996.1
20260503195249 29 0.0 0.0 0.00 0.00 0.00 71 996.2
20260503194742 28 0.0 0.0 0.00 0.00 0.00 71 996.2
20260503194234 28 0.0 0.0 0.00 0.00 0.00 71 996.1
20260503193218 29 0.0 0.0 0.00 0.00 0.00 71 996.0
20260503192712 29 0.0 0.0 0.00 0.00 0.00 71 995.9
20260503192205 28 0.0 0.0 0.00 0.00 0.00 71 995.9
20260503191654 29 0.0 0.0 0.00 0.00 0.00 71 995.8
20260503191146 29 0.0 0.0 0.00 0.00 0.00 71 995.7
20260503190638 29 0.0 0.0 0.00 0.00 0.00 71 995.7
20260503190131 29 0.0 0.0 0.00 0.00 0.00 71 995.6
20260503185624 29 0.0 0.0 0.00 0.00 0.00 70 995.7
20260503185117 29 0.0 0.0 0.00 0.00 0.00 70 995.6
20260503184610 29 0.0 0.0 0.00 0.00 0.00 71 995.5
20260503184104 29 0.0 0.0 0.00 0.00 0.00 71 995.5
20260503183556 29 0.0 0.0 0.00 0.00 0.00 71 995.5
20260503182036 29 0.0 0.0 0.00 0.00 0.00 71 995.5
20260503181529 29 0.0 0.0 0.00 0.00 0.00 70 995.6
20260503181023 29 0.0 0.0 0.00 0.00 0.00 71 995.5
20260503180515 29 0.0 0.0 0.00 0.00 0.00 70 995.5
20260503175457 29 0.0 0.0 0.00 0.00 0.00 71 995.5
20260503174950 29 0.0 0.0 0.00 0.00 0.00 70 995.6
20260503174443 29 0.0 0.0 0.00 0.00 0.00 71 995.8
20260503173936 29 0.0 0.0 0.00 0.00 0.00 70 995.9
20260503173429 29 0.0 0.0 0.00 0.00 0.00 71 996.0